.
WxDataArchive / Data Records for 2007-12-28
2007-12-27 December 2007 2007-12-29

Data Records for Friday, 28 December 2007

Time	Temp	Chill	HIndex	Humid	Dewpt	 Wind 	HiWind	WindDir	Rain 	Barom 
-----	----	-----	------	-----	-----	------	------	-------	-----	----- 
00:00	31.3	31.3	31.3	84	27.0	0	1	22	0.00	30.184 
00:05	31.3	31.3	31.3	84	27.0	0	2	22	0.00	30.184 
00:10	31.3	31.3	31.3	84	27.0	0	1	22	0.00	30.186 
00:15	31.3	31.3	31.3	84	27.0	0	1	22	0.00	30.183 
00:20	31.3	31.3	31.3	84	27.0	0	2	22	0.00	30.182 
00:25	31.3	31.3	31.3	84	27.0	0	0	---	0.00	30.185 
00:30	31.3	31.3	31.3	84	27.0	0	1	22	0.00	30.180 
00:35	31.3	31.3	31.3	84	27.0	0	1	22	0.00	30.172 
00:40	31.3	31.3	31.3	84	27.0	0	3	22	0.00	30.169 
00:45	31.3	31.3	31.3	84	27.0	1	2	45	0.00	30.167 
00:50	31.3	31.3	31.3	84	27.0	1	3	90	0.00	30.163 
00:55	31.3	31.3	31.3	84	27.0	0	3	68	0.00	30.161 
01:00	31.2	31.2	31.2	84	26.9	1	3	45	0.00	30.162 
01:05	31.2	31.2	31.2	84	26.9	0	3	45	0.00	30.164 
01:10	31.2	31.2	31.2	84	26.9	0	2	45	0.00	30.168 
01:15	31.0	31.0	31.0	83	26.5	0	3	135	0.00	30.170 
01:20	31.0	31.0	31.0	83	26.5	0	1	68	0.00	30.171 
01:25	31.2	31.2	31.2	83	26.6	0	3	112	0.00	30.172 
01:30	31.2	31.2	31.2	82	26.4	1	3	112	0.00	30.176 
01:35	31.2	31.2	31.2	82	26.4	1	2	112	0.00	30.181 
01:40	31.2	31.2	31.2	83	26.6	0	1	112	0.00	30.185 
01:45	31.2	31.2	31.2	82	26.4	0	1	112	0.00	30.187 
01:50	31.2	31.2	31.2	82	26.4	0	1	112	0.00	30.185 
01:55	31.3	31.3	31.3	83	26.7	0	1	112	0.00	30.184 
02:00	31.3	31.3	31.3	83	26.7	1	2	112	0.00	30.185 
02:05	31.2	31.2	31.2	84	26.9	1	3	90	0.00	30.184 
02:10	31.2	31.2	31.2	84	26.9	1	3	90	0.00	30.184 
02:15	31.2	31.2	31.2	84	26.9	0	2	90	0.00	30.181 
02:20	31.2	31.2	31.2	84	26.9	0	2	90	0.00	30.183 
02:25	31.2	31.2	31.2	84	26.9	0	1	90	0.00	30.185 
02:30	31.2	31.2	31.2	84	26.9	0	1	90	0.00	30.187 
02:35	31.2	31.2	31.2	84	26.9	0	0	---	0.00	30.193 
02:40	31.2	31.2	31.2	84	26.9	0	1	90	0.00	30.197 
02:45	31.2	31.2	31.2	84	26.9	0	2	90	0.00	30.198 
02:50	31.2	31.2	31.2	84	26.9	0	1	90	0.00	30.202 
02:55	31.2	31.2	31.2	84	26.9	0	1	90	0.00	30.205 
03:00	31.2	31.2	31.2	84	26.9	0	0	---	0.00	30.203 
03:05	31.2	31.2	31.2	85	27.2	0	0	---	0.00	30.203 
03:10	31.2	31.2	31.2	85	27.2	0	0	---	0.00	30.206 
03:15	31.2	31.2	31.2	85	27.2	0	0	---	0.00	30.207 
03:20	31.2	31.2	31.2	85	27.2	0	1	90	0.00	30.212 
03:25	31.2	31.2	31.2	85	27.2	0	3	90	0.00	30.211 
03:30	31.2	31.2	31.2	84	26.9	1	3	90	0.00	30.204 
03:35	31.2	31.2	31.2	85	27.2	0	2	90	0.00	30.205 
03:40	31.2	31.2	31.2	85	27.2	1	4	90	0.00	30.202 
03:45	31.2	31.2	31.2	85	27.2	2	3	90	0.00	30.204 
03:50	31.2	31.2	31.2	85	27.2	1	2	90	0.00	30.202 
03:55	31.3	31.3	31.3	86	27.6	1	2	90	0.00	30.203 
04:00	31.2	31.2	31.2	86	27.5	1	3	90	0.00	30.203 
04:05	31.2	31.2	31.2	86	27.5	0	2	90	0.00	30.200 
04:10	31.2	31.2	31.2	86	27.5	1	3	90	0.00	30.201 
04:15	31.2	31.2	31.2	86	27.5	1	3	90	0.00	30.203 
04:20	31.2	31.2	31.2	86	27.5	1	3	90	0.00	30.202 
04:25	31.2	31.2	31.2	86	27.5	1	4	90	0.00	30.202 
04:30	31.2	31.2	31.2	86	27.5	1	5	90	0.00	30.201 
04:35	31.2	31.2	31.2	87	27.8	1	2	90	0.00	30.199 
04:40	31.2	31.2	31.2	87	27.8	2	4	90	0.00	30.188 
04:45	31.0	31.0	31.0	87	27.6	2	4	112	0.00	30.184 
04:50	31.0	31.0	31.0	87	27.6	1	4	90	0.00	30.183 
04:55	31.0	31.0	31.0	87	27.6	2	5	90	0.00	30.184 
05:00	31.0	31.0	31.0	87	27.6	1	3	90	0.00	30.184 
05:05	31.0	31.0	31.0	87	27.6	2	5	90	0.00	30.185 
05:10	31.0	31.0	31.0	87	27.6	1	3	112	0.00	30.179 
05:15	31.0	31.0	31.0	87	27.6	1	3	112	0.00	30.178 
05:20	31.0	31.0	31.0	86	27.3	2	4	112	0.00	30.172 
05:25	31.0	31.0	31.0	86	27.3	1	4	90	0.00	30.172 
05:30	31.0	31.0	31.0	86	27.3	2	4	90	0.00	30.171 
05:35	31.0	31.0	31.0	86	27.3	2	4	112	0.00	30.171 
05:40	31.0	31.0	31.0	86	27.3	2	4	90	0.00	30.167 
05:45	31.0	31.0	31.0	86	27.3	2	5	112	0.00	30.160 
05:50	31.0	31.0	31.0	86	27.3	1	4	112	0.00	30.157 
05:55	31.0	31.0	31.0	86	27.3	2	7	90	0.00	30.156 
06:00	31.0	31.0	31.0	85	27.0	2	5	112	0.00	30.155 
06:05	31.0	31.0	31.0	85	27.0	2	6	112	0.00	30.153 
06:10	31.0	31.0	31.0	85	27.0	2	5	90	0.00	30.141 
06:15	31.0	31.0	31.0	85	27.0	2	7	90	0.00	30.135 
06:20	31.0	31.0	31.0	85	27.0	2	7	90	0.00	30.133 
06:25	31.0	31.0	31.0	86	27.3	2	6	112	0.00	30.134 
06:30	31.2	31.2	31.2	86	27.5	2	4	90	0.00	30.137 
06:35	31.2	31.2	31.2	86	27.5	2	4	112	0.00	30.129 
06:40	31.2	31.2	31.2	86	27.5	3	5	90	0.00	30.125 
06:45	31.2	27.2	31.2	85	27.2	4	10	112	0.00	30.115 
06:50	31.2	27.2	31.2	85	27.2	4	10	90	0.00	30.107 
06:55	31.3	27.3	31.3	86	27.6	4	10	112	0.00	30.104 
07:00	31.3	25.4	31.3	86	27.6	6	12	90	0.00	30.095 
07:05	31.3	25.4	31.3	88	28.2	6	12	112	0.00	30.078 
07:10	31.3	27.3	31.3	86	27.6	4	11	112	0.00	30.073 
07:15	31.3	25.4	31.3	86	27.6	6	11	112	0.00	30.079 
07:20	31.3	25.4	31.3	86	27.6	6	17	112	0.00	30.073 
07:25	31.5	27.5	31.5	86	27.8	4	9	90	0.00	30.074 
07:30	31.5	26.5	31.5	86	27.8	5	12	112	0.00	30.075 
07:35	31.6	31.6	31.6	86	27.9	3	8	112	0.00	30.093 
07:40	31.6	31.6	31.6	86	27.9	3	10	90	0.00	30.096 
07:45	31.8	27.8	31.8	86	28.1	4	8	112	0.00	30.089 
07:50	31.8	27.8	31.8	86	28.1	4	10	112	0.00	30.074 
07:55	31.8	27.8	31.8	87	28.4	4	9	90	0.00	30.072 
08:00	31.8	27.8	31.8	87	28.4	4	10	90	0.00	30.086 
08:05	31.9	31.9	31.9	87	28.5	3	5	112	0.00	30.095 
08:10	31.9	31.9	31.9	87	28.5	3	9	112	0.00	30.094 
08:15	31.9	31.9	31.9	87	28.5	2	5	112	0.00	30.085 
08:20	31.9	28.0	31.9	87	28.5	4	9	112	0.00	30.079 
08:25	32.1	32.1	32.1	88	29.0	3	11	112	0.00	30.080 
08:30	32.1	32.1	32.1	88	29.0	3	6	112	0.00	30.077 
08:35	32.1	32.1	32.1	88	29.0	3	6	112	0.00	30.074 
08:40	32.1	28.2	32.1	88	29.0	4	6	90	0.00	30.066 
08:45	32.2	28.3	32.2	88	29.1	4	8	112	0.00	30.059 
08:50	32.2	27.3	32.2	88	29.1	5	9	112	0.00	30.048 
08:55	32.2	27.3	32.2	88	29.1	5	11	90	0.00	30.052 
09:00	32.2	27.3	32.2	88	29.1	5	11	112	0.00	30.048 
09:05	32.2	27.3	32.2	88	29.1	5	10	112	0.00	30.042 
09:10	32.4	27.5	32.4	88	29.3	5	10	112	0.00	30.040 
09:15	32.4	28.5	32.4	88	29.3	4	11	90	0.00	30.046 
09:20	32.4	28.5	32.4	88	29.3	4	10	90	0.00	30.046 
09:25	32.5	32.5	32.5	88	29.3	3	7	112	0.00	30.052 
09:30	32.5	28.7	32.5	88	29.3	4	9	112	0.00	30.053 
09:35	32.7	28.9	32.7	88	29.5	4	9	112	0.00	30.053 
09:40	32.7	27.1	32.7	88	29.5	6	14	112	0.00	30.045 
09:45	32.7	27.9	32.7	88	29.5	5	12	112	0.00	30.030 
09:50	32.7	27.9	32.7	88	29.5	5	9	112	0.00	30.024 
09:55	32.7	28.9	32.7	89	29.8	4	7	90	0.00	30.026 
10:00	32.8	29.0	32.8	89	29.9	4	7	90	0.00	30.029 
10:05	32.8	28.0	32.8	89	29.9	5	12	112	0.00	30.028 
10:10	32.8	29.0	32.8	89	29.9	4	9	90	0.00	30.021 
10:15	32.9	32.9	32.9	89	30.0	3	10	90	0.00	30.014 
10:20	32.9	28.1	32.9	89	30.0	5	10	90	0.00	30.012 
10:25	32.9	32.9	32.9	89	30.0	3	8	112	0.00	30.013 
10:30	32.9	29.1	32.9	89	30.0	4	9	112	0.00	30.005 
10:35	32.9	29.1	32.9	89	30.0	4	10	90	0.00	29.997 
10:40	32.9	32.9	32.9	89	30.0	3	6	112	0.00	29.996 
10:45	32.9	32.9	32.9	90	30.3	3	9	90	0.00	29.991 
10:50	32.9	29.1	32.9	90	30.3	4	8	90	0.00	29.986 
10:55	32.9	29.1	32.9	90	30.3	4	10	112	0.00	29.982 
11:00	32.9	29.1	32.9	91	30.6	4	8	90	0.00	29.994 
11:05	32.9	32.9	32.9	90	30.3	3	8	112	0.00	29.990 
11:10	33.1	29.3	33.1	90	30.5	4	10	90	0.00	29.989 
11:15	33.1	33.1	33.1	90	30.5	3	6	112	0.00	30.002 
11:20	33.1	33.1	33.1	90	30.5	3	9	90	0.00	30.007 
11:25	33.1	33.1	33.1	90	30.5	3	6	112	0.00	30.005 
11:30	33.1	33.1	33.1	91	30.8	3	6	90	0.00	30.008 
11:35	33.1	33.1	33.1	91	30.8	2	5	90	0.00	29.999 
11:40	32.9	32.9	32.9	92	30.8	2	6	90	0.00	29.995 
11:45	32.9	32.9	32.9	92	30.8	2	5	90	0.00	29.982 
11:50	32.8	32.8	32.8	92	30.7	3	7	112	0.00	29.978 
11:55	32.8	32.8	32.8	93	31.0	2	6	90	0.00	29.975 
12:00	32.8	32.8	32.8	93	31.0	2	6	112	0.00	29.969 
12:05	32.8	32.8	32.8	93	31.0	3	7	90	0.00	29.965 
12:10	32.8	32.8	32.8	93	31.0	3	7	112	0.00	29.956 
12:15	32.8	32.8	32.8	94	31.3	3	7	112	0.00	29.948 
12:20	32.8	32.8	32.8	94	31.3	3	7	112	0.00	29.943 
12:25	32.9	32.9	32.9	94	31.4	3	6	112	0.00	29.935 
12:30	32.9	29.1	32.9	94	31.4	4	6	90	0.01	29.930 
12:35	32.9	32.9	32.9	94	31.4	3	6	112	0.00	29.917 
12:40	32.9	29.1	32.9	94	31.4	4	8	112	0.00	29.908 
12:45	32.9	29.1	32.9	94	31.4	4	7	90	0.00	29.902 
12:50	32.9	29.1	32.9	94	31.4	4	8	90	0.00	29.894 
12:55	32.9	29.1	32.9	94	31.4	4	9	112	0.00	29.888 
13:00	32.9	29.1	32.9	95	31.6	4	9	90	0.00	29.876 
13:05	32.9	29.1	32.9	95	31.6	4	7	112	0.00	29.870 
13:10	32.9	29.1	32.9	95	31.6	4	10	90	0.00	29.855 
13:15	32.9	29.1	32.9	95	31.6	4	10	112	0.00	29.849 
13:20	33.1	28.4	33.1	95	31.8	5	10	90	0.00	29.839 
13:25	33.1	29.3	33.1	95	31.8	4	9	112	0.00	29.839 
13:30	33.1	29.3	33.1	95	31.8	4	12	112	0.00	29.839 
13:35	33.1	28.4	33.1	95	31.8	5	10	112	0.00	29.811 
13:40	33.1	28.4	33.1	95	31.8	5	11	112	0.00	29.812 
13:45	33.1	28.4	33.1	95	31.8	5	12	112	0.00	29.809 
13:50	33.2	33.2	33.2	95	31.9	3	9	112	0.00	29.807 
13:55	33.2	28.5	33.2	95	31.9	5	10	90	0.00	29.794 
14:00	33.4	27.9	33.4	95	32.1	6	12	112	0.00	29.780 
14:05	33.4	28.7	33.4	95	32.1	5	10	112	0.00	29.780 
14:10	33.5	28.8	33.5	95	32.2	5	11	112	0.00	29.779 
14:15	33.7	28.3	33.7	95	32.4	6	12	112	0.00	29.769 
14:20	33.7	28.3	33.7	95	32.4	6	12	112	0.00	29.761 
14:25	33.8	29.2	33.8	95	32.5	5	9	112	0.00	29.760 
14:30	33.8	30.2	33.8	95	32.5	4	7	112	0.00	29.760 
14:35	34.0	30.4	34.0	95	32.7	4	9	112	0.00	29.762 
14:40	34.1	34.1	34.1	95	32.8	2	7	112	0.00	29.763 
14:45	34.1	34.1	34.1	95	32.8	3	7	112	0.00	29.762 
14:50	34.1	34.1	34.1	95	32.8	3	5	112	0.00	29.761 
14:55	34.3	30.7	34.3	95	33.0	4	7	112	0.00	29.745 
15:00	34.3	34.3	34.3	96	33.3	3	7	90	0.00	29.744 
15:05	34.3	34.3	34.3	96	33.3	2	4	112	0.00	29.746 
15:10	34.4	34.4	34.4	96	33.4	1	3	135	0.00	29.747 
15:15	34.4	34.4	34.4	96	33.4	2	5	90	0.00	29.745 
15:20	34.6	34.6	34.6	96	33.6	2	5	90	0.00	29.735 
15:25	34.6	34.6	34.6	96	33.6	2	6	90	0.00	29.728 
15:30	34.6	34.6	34.6	96	33.6	1	3	112	0.00	29.730 
15:35	34.7	34.7	34.7	96	33.7	1	3	112	0.00	29.729 
15:40	34.7	34.7	34.7	96	33.7	1	3	112	0.00	29.737 
15:45	34.7	34.7	34.7	96	33.7	1	3	112	0.01	29.733 
15:50	34.9	34.9	34.9	96	33.9	1	3	112	0.00	29.729 
15:55	34.9	34.9	34.9	96	33.9	1	2	112	0.00	29.727 
16:00	34.9	34.9	34.9	96	33.9	1	2	112	0.01	29.725 
16:05	35.0	35.0	35.0	96	34.0	0	2	112	0.00	29.725 
16:10	35.0	35.0	35.0	96	34.0	1	4	112	0.01	29.719 
16:15	35.0	35.0	35.0	96	34.0	1	3	112	0.00	29.716 
16:20	35.2	35.2	35.2	96	34.2	0	1	112	0.01	29.715 
16:25	35.2	35.2	35.2	96	34.2	1	3	112	0.00	29.716 
16:30	35.2	35.2	35.2	96	34.2	0	2	112	0.01	29.712 
16:35	35.2	35.2	35.2	96	34.2	0	1	112	0.00	29.713 
16:40	35.3	35.3	35.3	96	34.3	0	1	112	0.01	29.713 
16:45	35.3	35.3	35.3	96	34.3	0	1	112	0.00	29.711 
16:50	35.3	35.3	35.3	96	34.3	0	1	112	0.00	29.709 
16:55	35.3	35.3	35.3	96	34.3	0	1	112	0.01	29.712 
17:00	35.5	35.5	35.5	96	34.5	0	2	112	0.00	29.711 
17:05	35.5	35.5	35.5	96	34.5	0	1	112	0.00	29.709 
17:10	35.6	35.6	35.6	96	34.6	0	1	112	0.01	29.710 
17:15	35.8	35.8	35.8	96	34.8	0	1	112	0.01	29.705 
17:20	35.8	35.8	35.8	96	34.8	0	1	112	0.01	29.706 
17:25	35.8	35.8	35.8	96	34.8	0	1	112	0.00	29.706 
17:30	35.9	35.9	35.9	96	34.9	0	1	112	0.00	29.709 
17:35	36.3	36.3	36.3	97	35.5	1	3	112	0.00	29.711 
17:40	37.0	37.0	37.0	97	36.2	1	3	248	0.01	29.709 
17:45	37.5	37.5	37.5	97	36.7	1	7	248	0.00	29.707 
17:50	38.2	38.2	38.2	97	37.4	2	5	248	0.00	29.708 
17:55	38.8	38.8	38.8	97	38.0	2	4	270	0.00	29.706 
18:00	39.2	39.2	39.2	97	38.4	3	7	248	0.00	29.708 
18:05	39.5	39.5	39.5	97	38.7	3	11	248	0.01	29.706 
18:10	39.6	39.6	39.6	97	38.8	3	9	248	0.00	29.708 
18:15	39.6	39.6	39.6	97	38.8	3	9	248	0.00	29.708 
18:20	39.6	39.6	39.6	97	38.8	2	10	270	0.00	29.708 
18:25	39.6	36.9	39.6	97	38.8	4	10	248	0.01	29.712 
18:30	39.6	39.6	39.6	97	38.8	3	11	248	0.00	29.719 
18:35	39.6	36.9	39.6	97	38.8	4	12	248	0.00	29.723 
18:40	39.6	36.9	39.6	97	38.8	4	14	248	0.00	29.724 
18:45	39.5	36.7	39.5	97	38.7	4	14	248	0.00	29.725 
18:50	39.3	36.5	39.3	97	38.5	4	11	270	0.01	29.725 
18:55	39.3	35.7	39.3	96	38.3	5	14	270	0.00	29.727 
19:00	39.3	35.7	39.3	96	38.3	5	10	270	0.00	29.728 
19:05	39.2	36.4	39.2	96	38.2	4	10	270	0.00	29.729 
19:10	39.2	35.5	39.2	96	38.2	5	12	270	0.00	29.736 
19:15	39.2	34.2	39.2	96	38.2	7	20	270	0.00	29.737 
19:20	38.9	35.2	38.9	95	37.6	5	13	248	0.00	29.737 
19:25	38.8	34.3	38.8	94	37.2	6	14	270	0.00	29.738 
19:30	38.8	35.1	38.8	93	37.0	5	13	270	0.00	29.738 
19:35	38.8	35.1	38.8	92	36.7	5	12	270	0.00	29.743 
19:40	38.6	34.8	38.6	91	36.2	5	15	270	0.00	29.747 
19:45	38.6	34.8	38.6	91	36.2	5	14	248	0.00	29.748 
19:50	38.5	35.6	38.5	90	35.8	4	12	270	0.00	29.745 
19:55	38.5	35.6	38.5	90	35.8	4	9	248	0.00	29.749 
20:00	38.5	35.6	38.5	90	35.8	4	10	270	0.00	29.749 
20:05	38.5	35.6	38.5	89	35.5	4	10	270	0.00	29.751 
20:10	38.5	35.6	38.5	88	35.3	4	12	270	0.00	29.750 
20:15	38.5	34.0	38.5	87	35.0	6	13	248	0.00	29.754 
20:20	38.6	33.5	38.6	85	34.5	7	15	270	0.01	29.759 
20:25	38.6	34.1	38.6	84	34.2	6	15	270	0.00	29.765 
20:30	38.3	33.7	38.3	83	33.6	6	14	270	0.00	29.768 
20:35	38.2	35.2	38.2	83	33.5	4	12	270	0.00	29.771 
20:40	38.0	32.7	38.0	81	32.7	7	14	270	0.00	29.777 
20:45	37.8	33.1	37.8	81	32.5	6	13	270	0.00	29.787 
20:50	37.2	31.2	37.2	77	30.7	8	22	270	0.00	29.792 
20:55	37.0	32.2	37.0	77	30.5	6	22	270	0.00	29.791 
21:00	36.8	30.7	36.8	77	30.3	8	17	270	0.00	29.790 
21:05	36.8	31.9	36.8	77	30.3	6	15	270	0.00	29.793 
21:10	36.6	32.5	36.6	78	30.4	5	12	270	0.00	29.792 
21:15	36.6	31.7	36.6	78	30.4	6	15	248	0.00	29.790 
21:20	36.6	32.5	36.6	78	30.4	5	12	270	0.00	29.796 
21:25	36.6	32.5	36.6	78	30.4	5	12	270	0.00	29.798 
21:30	36.6	31.7	36.6	78	30.4	6	14	270	0.00	29.801 
21:35	36.6	31.7	36.6	78	30.4	6	13	270	0.00	29.801 
21:40	36.6	31.7	36.6	78	30.4	6	14	270	0.00	29.803 
21:45	36.6	31.7	36.6	78	30.4	6	15	270	0.00	29.803 
21:50	36.5	32.4	36.5	78	30.3	5	14	270	0.00	29.805 
21:55	36.3	30.7	36.3	79	30.4	7	18	270	0.00	29.807 
22:00	36.2	32.0	36.2	80	30.6	5	11	270	0.00	29.811 
22:05	36.0	31.0	36.0	81	30.7	6	13	270	0.00	29.817 
22:10	35.9	35.9	35.9	81	30.6	3	9	270	0.00	29.819 
22:15	35.9	31.7	35.9	81	30.6	5	12	270	0.00	29.820 
22:20	35.9	31.7	35.9	79	30.0	5	13	270	0.00	29.820 
22:25	35.9	31.7	35.9	79	30.0	5	15	270	0.00	29.823 
22:30	35.9	32.6	35.9	79	30.0	4	9	270	0.00	29.828 
22:35	35.9	30.9	35.9	78	29.7	6	15	270	0.00	29.828 
22:40	35.9	31.7	35.9	79	30.0	5	12	270	0.00	29.832 
22:45	35.8	35.8	35.8	79	29.9	3	8	270	0.00	29.835 
22:50	35.6	35.6	35.6	80	30.1	3	10	270	0.00	29.838 
22:55	35.5	31.2	35.5	80	30.0	5	13	270	0.00	29.841 
23:00	35.3	30.2	35.3	80	29.8	6	13	270	0.00	29.845 
23:05	35.3	31.9	35.3	80	29.8	4	12	270	0.00	29.852 
23:10	35.0	29.8	35.0	79	29.2	6	18	270	0.00	29.849 
23:15	34.9	29.7	34.9	77	28.4	6	22	270	0.00	29.858 
23:20	34.9	27.8	34.9	77	28.4	9	26	270	0.00	29.857 
23:25	34.7	27.6	34.7	77	28.2	9	17	270	0.00	29.860 
23:30	34.6	28.6	34.6	78	28.5	7	18	248	0.00	29.863 
23:35	34.4	29.1	34.4	78	28.3	6	14	270	0.00	29.860 
23:40	34.4	29.1	34.4	78	28.3	6	14	270	0.00	29.864 
23:45	34.3	29.0	34.3	78	28.2	6	14	270	0.00	29.868 
23:50	34.3	29.0	34.3	77	27.9	6	16	270	0.00	29.869 
23:55	34.3	29.0	34.3	77	27.9	6	18	270	0.00	29.869 

CoCoRaHS
IN-AL-39
A2 Web Hosting
Creative Commons License
GoDaddy
Look for:

loaded 2017-12-11 06:46:10 • last modified 2010-11-18 10:43:29
Privacy PolicyDisclaimer
• wx.awcolley.com is powered by PmWiki v.2002016 •
• all content (unless otherwise noted) © 2017 A W Colley